Капсускас

Lithuania     54˚33′00″N   23˚21′00″E
temp.,
°C
wind,
m/s
gust,
m/s
humid.,
%
clouds,
%
prec.,
mm/h
press.,
hPa
HPBL,
m
27 november, fri
fri2723:00+3˚sw51088100 0.0 1013307
02:00+4˚wsw61391100 0.7 1012525
05:00+5˚w6148975 0.1 1011542
08:00+5˚nnw9148976 0.3 1012766
11:00+5˚nw6108178 0.1 1014816
14:00+5˚nw597566 0.3 10141214
17:00+5˚wnw51174100 0.2 1015774
20:00+4˚nw51084100 0.8 1015798
28 november, sat
sat2823:00+2˚n4887100 0.4 1016650
02:00+1˚nne4794100 0.6 1017492
05:00−1˚n369333 0.0 1018286
08:00−1˚n369135 0.0 1020396
11:00n4690100 0.1 1021444
14:00+1˚nnw469599 0.3 1021362
17:00+1˚n4697100 0.4 1021332
20:00+1˚nne4797100 0.6 1021378
29 november, sun
sun2923:00+1˚ne4696100 0.2 1022466
02:00nne359799 0.3 1022333
05:00ene5897100 0.4 1021452
08:00−1˚ene368684 0.5 1022432
11:00ene358596 0.0 1022474
14:00ne469598 0.3 1022442
17:00ne379292 0.3 1021398
20:00nne479293 0.3 1022320
30 november, mon
mon3023:00ne359497 0.2 1022312
02:00−1˚n239493 0.3 1023141
05:00−2˚nw2395100 0.1 1022129
08:00−2˚w229485 0.1 102364
11:00−1˚w358792 0.1 1024427
14:00wsw357894 0.1 1024691
17:00−1˚sw378593 0.0 1024264
20:00−1˚sw488784 0.0 1025343
1 december, tue
tue123:00−2˚ssw4108620 0.0 1025368
02:00−2˚ssw5108611 0.0 1025486
05:00−2˚ssw498150 0.0 1025422
08:00−2˚s498569 0.0 1025368
11:00−1˚s577893 0.0 1026651
14:00−1˚s577197 0.0 1026804
17:00−3˚se368395 0.0 1026184
20:00−3˚se388279 0.0 1028252